Terug naar catalogus

STARLINK-30149

ActiefCommunicatieVLEO
NORAD 57516·PAYLOAD·🇺🇸 United States

Gelanceerd Aug 7, 2023 vanaf Cape Canaveral Space Force Station

Loading…

Volgende Passages (komende 24 uur)

TLE

VersSource: CelesTrak SupGP

Epoch: Sep 15, 2026, 01:41 UTC

1 57516C 23113X   26258.07062500 -.00091186  00000+0 -33028-2 0  2589
2 57516  43.0041  26.4134 0002195 271.8222 321.7486 15.27621491    19

Volg STARLINK-30149 in realtime met AllMySat

Download on the App Store